Location: De Har
(53.3413°N, 6.6858°E)
Time: 17:20:04
(UTC+00:00)

Meteor 2-10 Rocket - Pass Details

Date: 22 April 2026
Orbit: 732 x 882 km, 81.2° (Epoch: 9 May)

Event Time Altitude Azimuth Distance (km) Brightness Sun altitude
Rises 02:35:02 0° 348° (NNW) 3,188 7.2 -13.8°
Reaches altitude 10° 02:37:22 10° 351° (N) 2,271 6.4 -13.5°
Maximum altitude 02:42:26 64° 73° (ENE) 847 4.0 -13.0°
Drops below altitude 10° 02:47:37 10° 155° (SSE) 2,331 5.8 -12.4°
Sets 02:50:02 0° 159° (SSE) 3,279 6.6 -12.1°
